Overview Statistics Trail Chart Weather Telemetry Raw packets
 

This is the latest recevied weather packets stored in our database for station/object KG4GJX. If no packets are shown the sender has not sent any weather packets the latest 10 day(s).

<< 20 21 22 23 24 25 26 >>
Time Temp. Humidity Pressure Rain* Wind** Luminosity Snow
1788204239 33.89° C 51% 1020.9 hPa 0 mm - - -
1788203577 33.89° C 53% 1021.3 hPa 0 mm - - -
1788202914 33.33° C 51% 1021.3 hPa 0 mm - - -
1788202252 33.33° C 52% 1021.3 hPa 0 mm - - -
1788201590 32.78° C 52% 1021.3 hPa 0 mm - - -
1788200926 32.78° C 54% 1021.6 hPa 0 mm - - -
1788200264 33.33° C 55% 1021.6 hPa 0 mm - - -
1788199601 33.33° C 55% 1021.6 hPa 0 mm - - -
1788198938 32.78° C 58% 1022 hPa 0 mm - - -
1788198275 32.22° C 58% 1022 hPa 0 mm - - -
1788197613 32.78° C 57% 1022 hPa 0 mm - - -
1788196951 32.78° C 57% 1022 hPa 0 mm - - -
1788196289 33.33° C 56% 1022 hPa 0 mm - - -
1788195626 33.33° C 61% 1022 hPa 0 mm - - -
1788194964 32.78° C 59% 1022.3 hPa 0 mm - - -
1788194301 32.22° C 63% 1022.3 hPa 0 mm - - -
1788193639 31.67° C 64% 1022.3 hPa 0 mm - - -
1788192976 30.56° C 73% 1022.3 hPa 0 mm - - -
1788192314 30° C 69% 1022.6 hPa 0 mm - - -
1788191652 31.11° C 67% 1022.6 hPa 0 mm - - -
1788190989 30.56° C 69% 1022.6 hPa 0 mm - - -
1788190327 30.56° C 67% 1022.6 hPa 0 mm - - -
1788189665 30.56° C 68% 1022.6 hPa 0 mm - - -
1788189002 30° C 70% 1022.6 hPa 0 mm - - -
1788188340 29.44° C 74% 1022.6 hPa 0 mm - - -

* Rain latest hour (hover to see other rain measurements)
** Current wind speed in m/s (hover to see current wind gust speed)